Overview Statistics Trail Chart Weather Telemetry Raw packets
 

This is the latest recevied weather packets stored in our database for station/object KB4RFE. If no packets are shown the sender has not sent any weather packets the latest 10 day(s).

<< 83 84 85 86 87 88 89 >>
Time Temp. Humidity Pressure Rain* Wind** Luminosity Snow
1788019068 26.11° C 90% 1024.4 hPa 1.27 mm - 206 W/m² -
1788018768 26.11° C 90% 1024.4 hPa 1.27 mm - 183 W/m² -
1788018462 26.11° C 89% 1024.3 hPa 1.27 mm - 164 W/m² -
1788018161 26.11° C 89% 1024.4 hPa 0.51 mm - 153 W/m² -
1788017858 26.11° C 89% 1024.7 hPa 0.51 mm - 150 W/m² -
1788017554 26.11° C 89% 1024.6 hPa 0.51 mm - 156 W/m² -
1788017251 26.11° C 88% 1024.6 hPa 0 mm - 162 W/m² -
1788016946 26.67° C 88% 1024.4 hPa 0 mm - 168 W/m² -
1788016645 26.67° C 88% 1024.7 hPa 0 mm - 169 W/m² -
1788016344 26.67° C 88% 1024.6 hPa 0 mm - 189 W/m² -
1788016043 26.67° C 88% 1024.3 hPa 0 mm - 223 W/m² -
1788015743 26.67° C 88% 1024.5 hPa 0 mm - 260 W/m² -
1788015438 26.67° C 89% 1024.5 hPa 0 mm - 203 W/m² -
1788015133 26.67° C 87% 1024.2 hPa 0 mm - 274 W/m² -
1788014831 26.67° C 89% 1024.4 hPa 0 mm - 335 W/m² -
1788014526 26.67° C 90% 1024.2 hPa 0 mm - 296 W/m² -
1788014221 26.11° C 91% 1024.1 hPa 0 mm - 244 W/m² -
1788013920 26.11° C 91% 1024.1 hPa 0 mm - 213 W/m² -
1788013615 26.11° C 92% 1024 hPa 0 mm - 188 W/m² -
1788013310 26.11° C 92% 1024 hPa 0 mm - 247 W/m² -
1788013010 26.11° C 92% 1024 hPa 0 mm - 225 W/m² -
1788012703 25.56° C 92% 1024.1 hPa 0 mm - 208 W/m² -
1788012399 25.56° C 92% 1023.9 hPa 0 mm - 179 W/m² -
1788012098 25.56° C 92% 1023.9 hPa 0 mm - 171 W/m² -
1788011793 25.56° C 93% 1023.9 hPa 0 mm - 154 W/m² -

* Rain latest hour (hover to see other rain measurements)
** Current wind speed in m/s (hover to see current wind gust speed)